Voltar ao catálogo

FENGYUN 1C DEB

AtivoSSO
NORAD 30882·DEBRIS·🇨🇳 China

Lançado May 10, 1999 de Taiyuan Satellite Launch Center

Loading…

Próximas Passagens (próximas 24 horas)

TLE

AtualizadoSource: Space-Track

Época: Sep 14, 2026, 10:03 UTC

1 30882U 99025AXU 26257.41940491  .00005924  00000-0  48844-3 0  9991
2 30882  97.9077 318.4171 0138068 211.6813 147.6043 14.92224751 37546

Acompanhe FENGYUN 1C DEB em tempo real com AllMySat

Download on the App Store